EW7614 Weather Reports


time (UTC)temp
C
wind
direction
speed
KPH
gust
KPH
rain 1hr
cm
rain 24hr
cm
rain mn
cm
humidity
%
barometer
mb
20260507191601 8 185 6.4 9.7 0.00 0.03 0.03 89 1013.7
20260507190016 8 294 0.0 0.0 0.00 0.03 0.03 90 1013.6
20260507184607 8 294 0.0 0.0 0.00 0.03 0.03 89 1013.3
20260507183026 9 294 0.0 0.0 0.00 0.03 0.03 89 1013.2
20260507181608 9 294 0.0 0.0 0.00 0.03 0.03 88 1013.0
20260507180032 9 309 0.0 4.8 0.00 0.03 0.03 87 1012.8
20260507174608 10 281 0.0 1.6 0.00 0.03 0.03 86 1012.7
20260507173034 10 42 0.0 1.6 0.00 0.03 0.03 85 1012.6
20260507171610 10 38 0.0 0.0 0.00 0.03 0.03 86 1012.5
20260507170020 10 96 0.0 6.4 0.00 0.03 0.03 83 1012.5
20260507164608 10 74 0.0 3.2 0.00 0.03 0.03 84 1012.3
20260507163017 10 75 0.0 1.6 0.00 0.03 0.03 86 1012.3
20260507161558 10 345 0.0 8.0 0.03 0.03 0.03 85 1012.1
20260507160133 10 103 0.0 4.8 0.03 0.03 0.03 86 1012.0
20260507154542 10 57 0.0 6.4 0.03 0.03 0.03 85 1011.9
20260507153130 10 155 0.0 4.8 0.03 0.03 0.03 84 1011.9
20260507151540 10 238 0.0 8.0 0.00 0.00 0.00 83 1011.7
20260507150116 10 195 0.0 3.2 0.00 0.00 0.00 80 1011.4
20260507144653 11 188 0.0 3.2 0.00 0.00 0.00 81 1011.2
20260507143105 11 152 0.0 1.6 0.00 0.00 0.00 78 1011.2
20260507141629 12 97 0.0 6.4 0.00 0.00 0.00 75 1011.1
20260507140038 12 78 3.2 12.9 0.00 0.00 0.00 75 1010.7
20260507134544 12 71 1.6 12.9 0.00 0.00 0.00 73 1010.5
20260507133110 12 60 1.6 16.1 0.00 0.00 0.00 76 1010.6
20260507131615 12 294 1.6 12.9 0.00 0.00 0.00 75 1010.8
20260507130038 12 57 3.2 17.7 0.00 0.00 0.00 75 1010.4
20260507124618 12 65 3.2 12.9 0.00 0.00 0.00 79 1010.5
20260507123013 11 192 4.8 11.3 0.00 0.00 0.00 78 1010.4
20260507121544 11 258 3.2 11.3 0.00 0.00 0.00 76 1010.4
20260507120131 12 198 3.2 9.7 0.00 0.00 0.00 71 1010.1
20260507114611 12 195 4.8 14.5 0.00 0.00 0.00 70 1010.0
20260507113015 13 140 0.0 6.4 0.00 0.00 0.00 73 1010.0
20260507111551 12 298 0.0 8.0 0.00 0.00 0.00 76 1009.9
20260507110121 11 177 0.0 14.5 0.00 0.00 0.00 81 1009.9
20260507104528 10 159 0.0 4.8 0.00 0.00 0.00 84 1010.0
20260507103002 11 292 6.4 29.0 0.00 0.00 0.00 78 1010.1
20260507101541 12 279 8.0 24.1 0.00 0.00 0.00 69 1009.6
20260507100115 13 318 12.9 24.1 0.00 0.00 0.00 64 1009.2
20260507094550 15 342 6.4 19.3 0.00 0.00 0.00 61 1008.9
20260507093053 16 11 1.6 9.7 0.00 0.00 0.00 57 1008.7
20260507091549 15 339 1.6 8.0 0.00 0.00 0.00 63 1008.7
20260507090046 14 221 0.0 1.6 0.00 0.00 0.00 59 1008.6
20260507084550 15 213 0.0 3.2 0.00 0.00 0.00 58 1008.5
20260507083044 15 82 0.0 3.2 0.00 0.00 0.00 58 1008.7
20260507081540 14 161 0.0 3.2 0.00 0.00 0.00 63 1008.7
20260507080015 14 34 0.0 3.2 0.00 0.00 0.00 64 1008.9
20260507074559 12 302 0.0 1.6 0.00 0.00 0.00 74 1009.0
20260507073010 11 38 0.0 1.6 0.00 0.00 0.00 76 1009.2
20260507071606 11 83 0.0 1.6 0.00 0.00 0.00 81 1009.2
20260507070138 10 256 0.0 1.6 0.00 0.00 0.00 82 1009.3
20260507064541 8 283 0.0 1.6 0.00 0.00 0.00 81 1009.3
20260507063130 8 299 0.0 1.6 0.00 0.00 0.00 84 1009.3
20260507061538 8 306 1.6 4.8 0.00 0.00 0.00 84 1009.3
20260507060120 8 220 0.0 0.0 0.00 0.00 0.00 84 1009.2
20260507054512 8 215 0.0 0.0 0.00 0.00 0.00 84 1009.0
20260507053120 7 214 0.0 0.0 0.00 0.00 0.00 86 1008.8
20260507051519 7 214 0.0 0.0 0.00 0.00 0.00 84 1008.7
20260507050054 7 214 0.0 0.0 0.00 0.00 0.00 85 1008.7
20260507044516 7 213 0.0 0.0 0.00 0.00 0.00 88 1008.5
20260507043108 6 215 0.0 0.0 0.00 0.00 0.00 88 1008.4
20260507041538 6 259 0.0 3.2 0.00 0.00 0.00 89 1008.3
20260507040126 6 273 0.0 0.0 0.00 0.00 0.00 89 1008.3
20260507034538 6 277 0.0 0.0 0.00 0.00 0.00 88 1008.0
20260507033134 6 273 0.0 0.0 0.00 0.00 0.00 87 1007.9
20260507031554 6 273 0.0 1.6 0.00 0.00 0.00 86 1007.9
20260507030133 6 52 0.0 1.6 0.00 0.00 0.00 87 1007.8
20260507024602 6 271 0.0 0.0 0.00 0.00 0.00 87 1008.0
20260507023040 6 272 0.0 1.6 0.00 0.00 0.00 85 1007.9
20260507021631 6 197 0.0 0.0 0.00 0.00 0.00 85 1007.9
20260507020050 7 197 0.0 0.0 0.00 0.00 0.00 82 1007.7
20260507014510 7 148 0.0 0.0 0.00 0.00 0.00 81 1007.6
20260507013053 8 74 0.0 1.6 0.00 0.00 0.00 77 1007.5
20260507011514 8 266 0.0 1.6 0.00 0.00 0.00 76 1007.4
20260507010109 9 71 0.0 1.6 0.00 0.00 0.00 75 1007.4
20260507004532 9 151 0.0 3.2 0.00 0.00 0.00 74 1007.2
20260507003120 9 114 0.0 1.6 0.00 0.00 0.00 74 1007.1
20260507001549 10 161 0.0 9.7 0.00 0.00 0.00 72 1007.0
20260507000129 10 147 0.0 11.3 0.00 0.00 0.00 75 1007.0
20260506234544 9 109 0.0 1.6 0.00 0.00 0.00 73 1007.1
20260506233125 9 146 0.0 12.9 0.00 0.00 0.00 73 1006.9
20260506231544 10 173 6.4 14.5 0.00 0.00 0.00 71 1006.9
20260506230131 10 135 0.0 9.7 0.00 0.00 0.00 73 1006.8
20260506224542 10 135 0.0 9.7 0.00 0.00 0.00 71 1006.6
20260506223134 10 160 4.8 12.9 0.00 0.00 0.00 70 1006.6
20260506221544 10 188 6.4 12.9 0.00 0.00 0.00 71 1006.6
20260506220001 10 78 1.6 9.7 0.00 0.00 0.00 74 1006.5
20260506214606 11 167 3.2 11.3 0.00 0.00 0.00 73 1006.2
20260506213025 10 148 1.6 9.7 0.00 0.00 0.00 72 1006.1
20260506211608 10 105 1.6 4.8 0.00 0.00 0.00 77 1005.9
20260506210021 10 320 0.0 9.7 0.00 0.00 0.00 74 1005.8
20260506204610 8 252 0.0 1.6 0.00 0.00 0.00 80 1005.6
20260506203029 10 200 0.0 8.0 0.00 0.00 0.00 74 1005.4
20260506201623 9 187 0.0 1.6 0.00 0.00 0.00 79 1005.2
20260506200044 10 243 0.0 1.6 0.00 0.00 0.00 78 1005.0
20260506194631 11 209 0.0 1.6 0.00 0.00 0.00 76 1004.8
20260506193044 11 195 3.2 8.0 0.00 0.00 0.00 74 1004.6